Regional Weather Roundup
Issued by NWS

Home | Current Version | Previous Version | Text Only | Print | Product List | Glossary Off
Versions: 1 2 3 4 5 6 7 8 9 10 11 12 13 14 15 16 17 18 19 20 21 22 23 24 25 26 27 28 29 30 31 32 33 34 35 36 37 38 39 40 41 42 43 44 45 46 47 48 49 50

000
ASUS43 KIND 050509
RWRIN

WEATHER ROUNDUP FOR INDIANA
NATIONAL WEATHER SERVICE INDIANAPOLIS IN
100 AM EDT TUE MAY 05 2015

NOTE: "FAIR" INDICATES FEW OR NO CLOUDS BELOW 12,000 FEET WITH NO
SIGNIFICANT WEATHER AND/OR OBSTRUCTIONS TO VISIBILITY.

* - STATION DOES NOT REPORT WEATHER SUCH AS PRECIPITATION OR FOG.

+ - STATION NOT QUALITY CONTROLLED BY THE NATIONAL WEATHER SERVICE.
    USE DATA WITH CAUTION...ESPECIALLY DEWPOINT AND RELATIVE
    HUMIDITY OBSERVATIONS.

INZ001>003-010>013-019-020-050600-
NORTHWEST INDIANA

CITY           SKY/WX    TMP DP  RH WIND       PRES   REMARKS
GARY /AIRPORT/ CLOUDY    52  46  78 CALM      30.18S
KNOX *+        MOCLDY    61  54  77 E5        30.16S
LA PORTE +     MOCLDY    62  57  83 NE5       30.18S
MICHIGAN CITY+ MOCLDY    55  50  82 CALM      30.19R
MONTICELLO +   CLOUDY    60  60  99 CALM      30.16R
VALPARAISO     MOCLDY    58  55  90 N3        30.18R

$$

LMZ046-743>745-050600-
SOUTHERN LAKE MICHIGAN

STATION/POSITION TIME  TEMP    WIND        PRES    WAVE
                       AIR SEA DIR/SP/G            HT
                 (UTC) (F)     (DEG/KT/KT) (MB)    (FT)
BURNS HARBOR     0500   53      60/  7/  8 1022.0S
MICHIGAN CITY    0500   53      30/  9/ 10   N/A
5NW MICH CITY    0500   52 50   60/  8/ 10   N/A     1

$$

INZ004-005-014>016-021>024-050600-
NORTH CENTRAL INDIANA

CITY           SKY/WX    TMP DP  RH WIND       PRES   REMARKS
GOSHEN         MOCLDY    58  57  97 CALM      30.18S FOG
LOGANSPORT +   MOCLDY    59  57  94 E3        30.18R FOG
PERU/GRISSOM   MOCLDY    62  61  97 E6        30.17R
ROCHESTER +    CLOUDY    63  63 100 CALM      30.18R FOG
SOUTH BEND     MOCLDY    60  54  80 N5        30.19R
WARSAW +       CLOUDY    61  59  94 CALM      30.18F FOG

$$

INZ006>009-017-018-025>027-050600-
NORTHEAST INDIANA

CITY           SKY/WX    TMP DP  RH WIND       PRES   REMARKS
ANGOLA *+      CLOUDY    55  55 100 CALM      30.19S VSB 1/4
AUBURN +       CLOUDY    61  57  88 CALM      30.20S FOG
FORT WAYNE     CLOUDY    60  59  96 NE3       30.19S
HUNTINGTON +   CLOUDY    60  59  96 CALM      30.18S FOG

$$

INZ028-029-035-036-043>045-051>053-050600-
WEST CENTRAL INDIANA

CITY           SKY/WX    TMP DP  RH WIND       PRES   REMARKS
CRAWFORDSVL +  CLOUDY    60  53  77 SE7       30.16S
GREENCASTLE +  CLOUDY    61  55  82 SE5       30.18S FOG
LAFAYETTE      CLOUDY    61  59  93 E5        30.15S
TERRE HAUTE    PTCLDY    61  57  87 CALM      30.16R

$$

INZ030>032-037>040-046>048-054>057-064-065-050600-
CENTRAL INDIANA

CITY           SKY/WX    TMP DP  RH WIND       PRES   REMARKS
CP ATTERBURY + PTCLDY    63  59  88 CALM      30.20R
FISHERS *+     CLOUDY    61  61 100 CALM      30.19R
FRANKFORT +    HVY RAIN  62  62 100 CALM      30.20R
GREENWOOD *+   PTCLDY    64  61  88 SE5       30.19S
INDIANAPOLIS   MOCLDY    63  58  83 SE6       30.17R
-EAGLE CREEK   PTCLDY    60  58  92 CALM      30.17S
KOKOMO *+      MOCLDY    61  59  94 S7        30.18R
MARION +       CLOUDY    61  58  91 CALM      30.20R
MT COMFORT *+  MOCLDY    63 N/A N/A SE6       30.19S
SHELBYVILLE    MOCLDY    65  60  84 E9        30.18S
ZIONSVILLE +   CLOUDY    62  58  87 E3        30.19R

$$

INZ033-034-041-042-049-050-058-059-050600-
EAST CENTRAL INDIANA

CITY           SKY/WX    TMP DP  RH WIND       PRES   REMARKS
MUNCIE         HVY RAIN  63  60  90 S8        30.20R FOG

$$

INZ060-061-067>069-081>083-085>088-050600-
SOUTHWEST INDIANA

CITY           SKY/WX    TMP DP  RH WIND       PRES   REMARKS
EVANSVILLE     CLEAR     68  56  65 SW3       30.19R
HUNTINGBURG *+ CLEAR     66  54  63 S5        30.20R
WASHINGTON +   CLEAR     64  54  68 S8        30.17S

$$

INZ062-063-066-070>080-084-089>092-050600-
SOUTH CENTRAL AND SOUTHEAST INDIANA

CITY           SKY/WX    TMP DP  RH WIND       PRES   REMARKS
BEDFORD +      CLEAR     66  54  63 S5        30.19
BLOOMINGTON    CLEAR     69  55  60 SW7       30.18R
MADISON *+     CLEAR     61  57  88 CALM      30.23R
NORTH VERNON + PTCLDY    64  59  82 S5        30.20R
SEYMOUR +      CLEAR     63  57  82 S7        30.18S

$$



USA.gov is the U.S. government's official web portal to all federal, state and local government web resources and services.